Flag for Brazil Weather past 2 weeks in Florianópolis, Santa Catarina, Brazil

Now
70 °F

Partly sunny.


Feels Like: 70 °F
Forecast: 66 / 71 °F
Wind: 6 mph from Northwest

Location: Florianopolis Aeroporto

Current Time: Sep 19, 2014 at 11:42:26 AM

Latest Report: Sep 19, 2014 at 11:00 AM


Visibility: 5 mi

Pressure: 29.89 "Hg

Humidity: 83%

Dew point: 64 °F

Location of FlorianópolisLocation

Historic Weather in Florianópolis — Graph

°F

Florianópolis temperature yesterday

Maximum temperature yesterday: 66 °F (at 8:00 AM)
Minimum temperature yesterday: 46 °F (at 12:00 PM)
Average temperature yesterday: 65 °F

Past Weeks' High & Low Weather Summary

 TemperatureHumidityPressure
High86 °F (Sep 10, 1:00 PM)100% (Sep 8, 3:00 PM)30.33 "Hg (Sep 8, 3:00 PM)
Low46 °F (Sep 18, 12:00 PM)40% (Sep 10, 1:00 PM)29.68 "Hg (Sep 10, 3:00 PM)
Average68 °F77%30.06 "Hg
* Reported Sep 4 10:00 AM — Sep 19 10:00 AM, Florianópolis, Weather by CustomWeather, © 2014

Note: Actual official high and low records may vary slightly from our data, if they occured in-between our weather recording intervals... More about our weather records

Advertising

Florianópolis weather history for previous 24 hours

 ConditionsComfort  
Time TempWeatherWind HumidityBarometerVisibility
10:00 AM
Sep 19
70 °FDrizzle. Partly sunny.5 mph83%29.89 "Hg5 mi
9:00 AM68 °FDrizzle. Broken clouds.8 mph88%29.89 "Hg2 mi
8:00 AM68 °FLight rain. Mostly cloudy.1 mph88%29.89 "Hg5 mi
7:00 AM68 °FLight rain. Mostly cloudy.6 mph88%29.89 "Hg6 mi
6:00 AM68 °FLight rain. Mostly cloudy.13 mph88%29.89 "Hg6 mi
5:00 AM66 °FLight rain. Mostly cloudy.6 mph94%29.86 "Hg6 mi
4:00 AM66 °FLight rain. Mostly cloudy.6 mph94%29.89 "Hg6 mi
3:00 AM66 °FLight rain. Mostly cloudy.10 mph88%29.89 "Hg6 mi
2:00 AM66 °FLight rain. Mostly cloudy.9 mph88%29.95 "Hg4 mi
1:00 AM66 °FLight rain. Mostly cloudy.10 mph88%29.98 "Hg4 mi
12:00 AM66 °FLight rain. Mostly cloudy.8 mph88%30.01 "Hg6 mi
11:00 PM
Sep 18
66 °FLight rain. Mostly cloudy.9 mph88%30.01 "Hg4 mi
10:00 PM66 °FLight rain. Mostly cloudy.7 mph88%30.04 "Hg4 mi
9:00 PM66 °FLight rain. Passing clouds.9 mph88%30.04 "Hg4 mi
8:00 PM66 °FLight rain. Passing clouds.7 mph88%30.01 "Hg3 mi
7:00 PM66 °FRain. Partly cloudy.7 mph88%30.01 "Hg2 mi
6:00 PM66 °FLight rain. Passing clouds.8 mph88%30.04 "Hg2 mi
5:00 PM66 °FLight rain. Partly sunny.8 mph88%30.01 "Hg4 mi
4:00 PM66 °FLight rain. Broken clouds.7 mph88%30.01 "Hg3 mi
3:00 PM66 °FDrizzle. Partly sunny.8 mph88%30.04 "Hg3 mi
2:00 PM66 °FPassing clouds.8 mph88%30.07 "Hg3 mi
1:00 PM66 °FDrizzle. Partly sunny.5 mph88%30.07 "Hg5 mi
12:07 PM64 °FDrizzle. Partly sunny.3 mph94%30.07 "Hg1 mi
12:00 PM46 °FDrizzle. Partly sunny.5 mph100%30.09 "Hg1 mi
11:00 AM64 °FDrizzle. Partly sunny.6 mph94%30.09 "Hg2 mi
Weather by CustomWeather, © 2014

See weather overviewHow to use our weather pages